When you browse on this site, cookies collect data to enhance your experience and personalize the content and advertising you see.
Visit our Privacy Policy to learn more. By continuing to use the site, you agree to this use of cookies and data.
  • In United Kingdom
  • List of Countries
  • For 7 days
  • Water Temperature
  • Weather Map
  • Weather Widgets
  • user-avatar
    Login

    Hourly Weather Puspokladany

    Today, 15 November, Friday

    Time Temperature Precipitation Wind Pressure Humidity
    00:00 +12°C° 0 mm 1 mps 751 mmHg 87%
    01:00 +11°C° 0 mm 0 mps 751 mmHg 88%
    02:00 +12°C° 0 mm 1 mps 751 mmHg 89%
    03:00 +12°C° 0 mm 1 mps 751 mmHg 89%
    04:00 +12°C° 0 mm 1 mps 751 mmHg 90%
    05:00 +12°C° 0 mm 1 mps 751 mmHg 90%
    06:00 +12°C° 0 mm 1 mps 751 mmHg 91%
    07:00 +11°C° 0 mm 1 mps 752 mmHg 92%
    08:00 +13°C° 0 mm 1 mps 752 mmHg 87%
    09:00 +14°C° 0 mm 2 mps 752 mmHg 82%
    10:00 +15°C° 0 mm 2 mps 752 mmHg 77%
    11:00 +16°C° 0 mm 2 mps 752 mmHg 74%
    12:00 +17°C° 0 mm 3 mps 752 mmHg 70%
    13:00 +17°C° 0 mm 3 mps 752 mmHg 66%
    14:00 +17°C° 0 mm 3 mps 752 mmHg 69%
    15:00 +16°C° 0 mm 2 mps 752 mmHg 72%
    16:00 +15°C° 0 mm 2 mps 752 mmHg 75%
    17:00 +14°C° 0 mm 3 mps 752 mmHg 77%
    18:00 +13°C° 0 mm 3 mps 753 mmHg 79%
    19:00 +13°C° 0 mm 3 mps 753 mmHg 81%
    20:00 +13°C° 0 mm 3 mps 753 mmHg 81%
    21:00 +12°C° 0 mm 3 mps 753 mmHg 81%
    22:00 +12°C° 0 mm 3 mps 753 mmHg 82%
    23:00 +12°C° 0 mm 3 mps 753 mmHg 81%

    Tomorrow, 16 November, Saturday

    Time Temperature Precipitation Wind Pressure Humidity
    00:00 +12°C° 0 mm 3 mps 754 mmHg 80%
    01:00 +12°C° 0 mm 3 mps 754 mmHg 80%
    02:00 +11°C° 0 mm 3 mps 754 mmHg 79%
    03:00 +11°C° 0 mm 4 mps 754 mmHg 79%
    04:00 +11°C° 0 mm 4 mps 754 mmHg 79%
    05:00 +11°C° 0 mm 4 mps 754 mmHg 79%
    06:00 +11°C° 0 mm 4 mps 754 mmHg 78%
    07:00 +11°C° 0 mm 4 mps 754 mmHg 78%
    08:00 +13°C° 0 mm 5 mps 755 mmHg 72%
    09:00 +14°C° 0 mm 6 mps 755 mmHg 65%
    10:00 +16°C° 0 mm 6 mps 755 mmHg 59%
    11:00 +17°C° 0 mm 6 mps 755 mmHg 57%
    12:00 +19°C° 0 mm 6 mps 755 mmHg 55%
    13:00 +20°C° 0 mm 5 mps 755 mmHg 52%
    14:00 +17°C° 0 mm 5 mps 755 mmHg 57%
    15:00 +17°C° 0 mm 4 mps 755 mmHg 61%
    16:00 +16°C° 0 mm 3 mps 755 mmHg 65%
    17:00 +16°C° 0 mm 2 mps 755 mmHg 66%
    18:00 +15°C° 0 mm 2 mps 755 mmHg 68%
    19:00 +15°C° 0 mm 2 mps 755 mmHg 70%
    20:00 +14°C° 0 mm 2 mps 755 mmHg 70%
    21:00 +14°C° 0 mm 1 mps 755 mmHg 71%
    22:00 +13°C° 0 mm 1 mps 755 mmHg 72%
    23:00 +13°C° 0 mm 1 mps 755 mmHg 72%

    Day after tomorrow, 17 November, Sunday

    Time Temperature Precipitation Wind Pressure Humidity
    00:00 +13°C° 0 mm 2 mps 755 mmHg 72%
    01:00 +13°C° 0 mm 2 mps 755 mmHg 72%
    02:00 +12°C° 0 mm 2 mps 755 mmHg 73%
    03:00 +12°C° 0 mm 1 mps 755 mmHg 74%
    04:00 +11°C° 0 mm 1 mps 755 mmHg 75%
    05:00 +11°C° 0 mm 1 mps 755 mmHg 76%
    06:00 +10°C° 0 mm 2 mps 755 mmHg 77%
    07:00 +10°C° 0 mm 2 mps 755 mmHg 78%
    08:00 +12°C° 0 mm 2 mps 755 mmHg 74%
    09:00 +13°C° 0 mm 2 mps 754 mmHg 69%
    10:00 +14°C° 0 mm 2 mps 754 mmHg 65%
    11:00 +15°C° 0 mm 2 mps 754 mmHg 62%
    12:00 +15°C° 0 mm 2 mps 754 mmHg 60%
    13:00 +16°C° 0 mm 1 mps 753 mmHg 57%
    14:00 +15°C° 0 mm 1 mps 753 mmHg 60%
    15:00 +15°C° 0 mm 1 mps 753 mmHg 64%
    16:00 +14°C° 0 mm 1 mps 752 mmHg 67%
    17:00 +14°C° 0 mm 1 mps 752 mmHg 67%
    18:00 +13°C° 0 mm 1 mps 752 mmHg 67%
    19:00 +13°C° 0 mm 1 mps 752 mmHg 67%
    20:00 +13°C° 0 mm 2 mps 752 mmHg 67%
    21:00 +13°C° 0 mm 2 mps 752 mmHg 67%
    22:00 +12°C° 0 mm 2 mps 752 mmHg 66%
    23:00 +12°C° 0 mm 2 mps 751 mmHg 67%

    18 November, Monday

    Time Temperature Precipitation Wind Pressure Humidity
    00:00 +12°C° 0 mm 2 mps 751 mmHg 67%
    01:00 +12°C° 0 mm 2 mps 751 mmHg 67%
    02:00 +12°C° 0 mm 2 mps 750 mmHg 68%
    03:00 +12°C° 0 mm 2 mps 750 mmHg 68%
    04:00 +10°C° 0 mm 2 mps 750 mmHg 68%
    05:00 +10°C° 0 mm 2 mps 750 mmHg 68%
    06:00 +10°C° 0 mm 2 mps 750 mmHg 68%
    07:00 +10°C° 0 mm 2 mps 750 mmHg 68%
    08:00 +12°C° 0 mm 4 mps 751 mmHg 66%
    09:00 +14°C° 0 mm 6 mps 751 mmHg 64%
    10:00 +15°C° 0 mm 8 mps 752 mmHg 63%
    11:00 +16°C° 0 mm 7 mps 752 mmHg 60%
    12:00 +16°C° 0 mm 6 mps 753 mmHg 57%
    13:00 +16°C° 0 mm 6 mps 753 mmHg 54%
    14:00 +15°C° 0 mm 5 mps 753 mmHg 59%
    15:00 +14°C° 0 mm 3 mps 753 mmHg 63%
    16:00 +14°C° 0 mm 2 mps 753 mmHg 67%
    17:00 +14°C° 0 mm 2 mps 754 mmHg 69%
    18:00 +13°C° 0 mm 2 mps 754 mmHg 71%
    19:00 +13°C° 0 mm 2 mps 755 mmHg 72%
    20:00 +13°C° 0 mm 2 mps 755 mmHg 75%
    21:00 +11°C° 0 mm 3 mps 755 mmHg 78%
    22:00 +11°C° 0 mm 3 mps 755 mmHg 81%
    23:00 +11°C° 0 mm 3 mps 756 mmHg 82%

    19 November, Tuesday

    Time Temperature Precipitation Wind Pressure Humidity
    00:00 +11°C° 0 mm 3 mps 756 mmHg 84%
    01:00 +10°C° 0 mm 3 mps 756 mmHg 85%
    02:00 +10°C° 0 mm 3 mps 756 mmHg 85%
    03:00 +10°C° 0 mm 2 mps 756 mmHg 85%
    04:00 +10°C° 0 mm 2 mps 756 mmHg 85%
    05:00 +10°C° 0 mm 2 mps 756 mmHg 84%
    06:00 +10°C° 0 mm 2 mps 756 mmHg 83%
    07:00 +10°C° 0 mm 2 mps 756 mmHg 82%
    08:00 +12°C° 0 mm 2 mps 756 mmHg 76%
    09:00 +13°C° 0 mm 1 mps 756 mmHg 71%
    10:00 +14°C° 0 mm 1 mps 756 mmHg 65%
    11:00 +15°C° 0 mm 2 mps 755 mmHg 61%
    12:00 +16°C° 0 mm 2 mps 755 mmHg 57%
    13:00 +17°C° 0 mm 2 mps 754 mmHg 53%
    14:00 +16°C° 0 mm 2 mps 754 mmHg 57%
    15:00 +15°C° 0 mm 2 mps 754 mmHg 60%
    16:00 +14°C° 0 mm 2 mps 754 mmHg 63%
    17:00 +14°C° 0 mm 2 mps 754 mmHg 65%
    18:00 +13°C° 0 mm 2 mps 754 mmHg 66%
    19:00 +13°C° 0 mm 2 mps 754 mmHg 67%
    20:00 +13°C° 0 mm 2 mps 754 mmHg 67%
    21:00 +12°C° 0 mm 2 mps 754 mmHg 68%
    22:00 +12°C° 0 mm 2 mps 754 mmHg 68%
    23:00 +12°C° 0 mm 2 mps 754 mmHg 69%

    20 November, Wednesday

    Time Temperature Precipitation Wind Pressure Humidity
    00:00 +12°C° 0 mm 2 mps 754 mmHg 70%
    01:00 +12°C° 0 mm 2 mps 753 mmHg 70%
    02:00 +10°C° 0 mm 2 mps 753 mmHg 71%
    03:00 +11°C° 0 mm 1 mps 753 mmHg 72%
    04:00 +11°C° 0 mm 1 mps 753 mmHg 72%
    05:00 +11°C° 0 mm 1 mps 753 mmHg 73%
    06:00 +10°C° 0 mm 2 mps 753 mmHg 74%
    07:00 +10°C° 0 mm 2 mps 753 mmHg 74%
    08:00 +10°C° 0.3 mm 2 mps 753 mmHg 76%
    09:00 +10°C° 0.3 mm 2 mps 753 mmHg 78%
    10:00 +12°C° 0.3 mm 1 mps 754 mmHg 79%
    11:00 +11°C° 1.4 mm 1 mps 753 mmHg 84%
    12:00 +10°C° 1.4 mm 2 mps 753 mmHg 89%
    13:00 +10°C° 1.4 mm 2 mps 753 mmHg 94%
    14:00 +11°C° 1 mm 1 mps 753 mmHg 95%
    15:00 +11°C° 1 mm 1 mps 754 mmHg 96%
    16:00 +11°C° 1 mm 1 mps 754 mmHg 96%
    17:00 +11°C° 0.2 mm 1 mps 754 mmHg 96%
    18:00 +11°C° 0.2 mm 1 mps 754 mmHg 96%
    19:00 +11°C° 0.2 mm 1 mps 755 mmHg 96%
    20:00 +11°C° 0 mm 1 mps 755 mmHg 95%
    21:00 +9°C° 0 mm 2 mps 755 mmHg 95%
    22:00 +9°C° 0 mm 2 mps 756 mmHg 95%
    23:00 +9°C° 0 mm 2 mps 756 mmHg 94%
    Show more